�N����,����,�~����,�C��,���x,�C��,����,���ϕ���,�ő�u�ԕ���,�ő厞����,���˗�,�I�_���x,�n�����x,�ő啗���N��,DTYPE
"21/09/12","00:10",0.0,22.4,91.1,1006.9,304.1,1.0,1.4,320.0,0.00,20.9,25.2,"00:04:16",1
"21/09/12","00:20",0.0,22.4,91.3,1007.1,321.6,1.1,2.0,331.3,0.00,21.0,25.0,"00:15:44",1
"21/09/12","00:30",0.0,22.3,91.4,1006.9,289.2,0.8,1.4,321.5,0.00,20.9,25.1,"00:27:28",1
"21/09/12","00:40",0.0,22.4,91.6,1006.7,300.0,1.1,1.7,316.4,0.00,21.0,25.0,"00:30:56",1
"21/09/12","00:50",0.0,22.4,91.7,1006.9,293.7,1.0,1.3,316.1,0.00,21.0,25.0,"00:45:04",1
"21/09/12","01:00",0.0,22.3,91.8,1006.7,285.4,0.7,1.2,253.5,0.00,20.9,24.9,"00:55:04",1
"21/09/12","01:10",0.0,22.4,91.9,1006.7,303.2,1.2,2.1,336.8,0.00,21.1,25.0,"01:03:44",1
"21/09/12","01:20",0.0,22.4,92.0,1006.9,295.5,1.0,1.4,303.5,0.00,21.1,25.0,"01:16:48",1
"21/09/12","01:30",0.0,22.4,92.1,1006.7,306.5,1.0,1.7,334.7,0.00,21.1,24.8,"01:24:56",1
"21/09/12","01:40",0.0,22.4,92.2,1006.2,298.9,0.8,1.6,304.7,0.00,21.1,25.0,"01:34:32",1
"21/09/12","01:50",0.0,22.3,92.3,1006.7,312.6,1.1,1.6,309.8,0.00,21.0,25.0,"01:44:24",1
"21/09/12","02:00",0.0,22.3,92.3,1006.4,299.0,0.8,1.2,308.8,0.00,21.0,24.8,"01:52:40",1
"21/09/12","02:10",0.0,22.3,92.4,1006.4,302.1,1.1,1.7,328.1,0.00,21.0,24.7,"02:05:20",1
"21/09/12","02:20",0.0,22.3,92.5,1006.7,290.2,1.1,1.7,300.6,0.00,21.1,24.7,"02:18:16",1
"21/09/12","02:30",0.0,22.3,92.5,1006.4,287.8,1.1,1.8,317.7,0.00,21.1,24.8,"02:22:08",1
"21/09/12","02:40",0.0,22.3,92.5,1006.7,290.5,1.0,1.4,312.1,0.00,21.1,24.9,"02:33:44",1
"21/09/12","02:50",0.0,22.3,92.6,1006.4,315.4,1.1,1.7,331.7,0.00,21.1,24.8,"02:48:00",1
"21/09/12","03:00",0.0,22.2,92.6,1006.9,322.3,1.1,1.9,333.5,0.00,21.0,24.8,"02:50:16",1
"21/09/12","03:10",0.0,22.2,92.6,1006.9,293.3,1.0,1.4,306.5,0.00,21.0,24.7,"03:07:04",1
"21/09/12","03:20",0.0,22.1,92.7,1006.9,303.6,1.2,1.8,306.4,0.00,20.9,24.7,"03:13:44",1
"21/09/12","03:30",0.0,22.2,92.7,1006.7,291.5,1.0,2.1,336.3,0.00,21.0,24.8,"03:28:24",1
"21/09/12","03:40",0.0,22.2,92.7,1007.1,287.0,1.2,2.0,266.7,0.00,21.0,24.8,"03:34:32",1
"21/09/12","03:50",0.0,22.1,92.7,1006.7,292.6,1.0,1.4,271.9,0.00,20.9,24.7,"03:41:20",1
"21/09/12","04:00",0.0,22.1,92.7,1006.7,314.7,1.2,1.8,329.6,0.00,20.9,24.7,"03:57:52",1
"21/09/12","04:10",0.0,22.1,92.7,1006.7,296.6,1.1,2.0,325.0,0.00,20.9,24.8,"04:08:24",1
"21/09/12","04:20",0.0,22.0,92.6,1006.4,302.3,1.3,2.2,305.0,0.00,20.8,24.6,"04:10:24",1
"21/09/12","04:30",0.0,21.9,92.6,1007.1,291.9,1.0,1.6,352.9,0.00,20.7,24.7,"04:28:40",1
"21/09/12","04:40",0.0,22.0,92.6,1006.9,327.0,1.3,2.6,342.6,0.00,20.8,24.7,"04:36:00",1
"21/09/12","04:50",0.0,22.1,92.4,1006.9,339.4,1.0,1.8,339.3,0.00,20.8,24.7,"04:41:52",1
"21/09/12","05:00",0.0,21.9,92.4,1007.1,305.9,0.8,1.7,309.3,0.00,20.7,24.6,"04:54:56",1
"21/09/12","05:10",0.0,21.8,92.5,1007.4,326.1,1.5,2.6,339.9,0.00,20.6,24.5,"05:08:32",1
"21/09/12","05:20",0.0,21.8,92.4,1007.1,322.9,1.3,2.1,324.1,0.00,20.6,24.7,"05:12:40",1
"21/09/12","05:30",0.0,21.8,92.4,1007.6,298.6,1.1,1.4,320.1,0.00,20.6,24.7,"05:27:20",1
"21/09/12","05:40",0.0,21.8,92.5,1007.8,292.3,1.2,1.9,324.8,0.00,20.6,24.5,"05:34:48",1
"21/09/12","05:50",0.0,21.8,92.5,1008.1,307.2,1.5,2.8,330.2,0.00,20.6,24.4,"05:44:00",1
"21/09/12","06:00",0.0,21.8,92.4,1007.6,322.6,1.2,2.2,339.3,0.00,20.6,24.5,"05:58:24",1
"21/09/12","06:10",0.0,21.7,92.5,1008.1,325.4,1.6,2.4,327.7,0.00,20.5,24.5,"06:06:04",1
"21/09/12","06:20",0.0,21.7,92.5,1007.6,301.8,1.0,1.7,326.7,0.00,20.5,24.4,"06:10:16",1
"21/09/12","06:30",0.0,21.6,92.5,1008.3,309.2,1.2,2.2,333.7,0.00,20.4,24.4,"06:29:44",1
"21/09/12","06:40",0.0,21.7,92.5,1007.8,337.1,1.2,2.1,337.5,0.00,20.5,24.5,"06:31:28",1
"21/09/12","06:50",0.0,21.8,92.5,1007.8,328.7,1.2,1.7,316.8,0.01,20.6,24.4,"06:47:20",1
"21/09/12","07:00",0.0,21.8,92.6,1008.1,320.9,1.2,1.7,320.6,0.02,20.6,24.3,"06:52:16",1
"21/09/12","07:10",0.0,22.0,92.6,1008.1,291.5,0.8,1.0,294.7,0.02,20.8,24.5,"07:00:56",1
"21/09/12","07:20",0.0,22.2,92.6,1007.6,275.1,0.7,1.1,253.3,0.04,21.0,24.4,"07:19:36",1
"21/09/12","07:30",0.0,23.0,92.7,1007.6,294.5,0.7,1.2,256.3,0.11,21.8,24.4,"07:20:16",1
"21/09/12","07:40",0.0,23.8,91.9,1007.8,277.8,0.7,1.4,327.3,0.13,22.4,24.2,"07:37:36",1
"21/09/12","07:50",0.0,23.7,91.5,1007.6,285.7,0.7,1.4,248.2,0.09,22.3,24.4,"07:40:16",1
"21/09/12","08:00",0.0,24.1,91.1,1007.6,307.1,0.6,1.6,336.7,0.09,22.6,24.3,"07:52:16",1
"21/09/12","08:10",0.0,24.3,89.9,1007.6,259.5,0.5,1.0,297.6,0.12,22.6,24.4,"08:00:40",1
"21/09/12","08:20",0.0,24.5,89.5,1007.6,260.9,0.5,0.9,267.7,0.09,22.7,24.4,"08:16:08",1
"21/09/12","08:30",0.0,24.5,88.4,1007.6,273.4,0.5,1.2,318.3,0.09,22.5,24.5,"08:29:28",1
"21/09/12","08:40",0.0,24.6,87.6,1007.1,270.5,0.6,1.1,264.0,0.10,22.4,24.5,"08:31:20",1
"21/09/12","08:50",0.0,25.1,86.7,1007.4,249.0,0.2,0.6,278.1,0.11,22.8,24.4,"08:48:48",1
"21/09/12","09:00",0.0,25.3,85.7,1007.4,244.1,0.2,0.6,245.2,0.10,22.8,24.5,"08:52:00",1
"21/09/12","09:10",0.0,25.1,84.6,1007.1,245.8,0.6,1.2,244.5,0.08,22.4,24.4,"09:01:28",1
"21/09/12","09:20",0.0,25.3,83.9,1007.4,312.8,0.2,0.6,295.9,0.09,22.4,24.5,"09:18:32",1
"21/09/12","09:30",0.0,25.4,82.6,1007.1,307.8,0.7,1.4,316.9,0.10,22.3,24.7,"09:28:48",1
"21/09/12","09:40",0.0,25.7,81.9,1007.4,280.8,0.6,1.2,339.3,0.11,22.4,24.5,"09:30:56",1
"21/09/12","09:50",0.0,25.6,81.0,1007.4,215.9,1.0,2.2,237.4,0.13,22.1,24.5,"09:43:36",1
"21/09/12","10:00",0.0,25.9,80.5,1007.4,194.4,0.8,2.1,230.4,0.15,22.3,24.6,"09:52:00",1
"21/09/12","10:10",0.0,25.9,80.0,1007.6,175.1,0.7,1.7,158.4,0.13,22.2,24.6,"10:05:12",1
"21/09/12","10:20",0.0,26.1,79.4,1006.9,162.4,0.6,1.7,217.9,0.17,22.3,24.7,"10:18:08",1
"21/09/12","10:30",0.0,26.1,78.6,1007.4,206.0,1.1,2.2,212.0,0.15,22.1,24.6,"10:26:24",1
"21/09/12","10:40",0.0,26.2,78.6,1006.7,180.5,0.7,1.8,222.0,0.15,22.2,24.6,"10:35:52",1
"21/09/12","10:50",0.0,26.1,77.8,1006.4,178.2,0.7,1.9,222.0,0.12,22.0,24.6,"10:40:02",1
"21/09/12","11:00",0.0,26.2,78.1,1006.7,208.7,1.0,2.2,207.8,0.12,22.1,24.5,"10:50:40",1
"21/09/12","11:10",0.0,26.2,78.0,1006.4,218.8,0.7,2.2,216.1,0.13,22.1,24.8,"11:06:08",1
"21/09/12","11:20",0.0,26.1,78.0,1006.4,202.4,1.2,2.8,230.0,0.12,22.0,24.7,"11:12:32",1
"21/09/12","11:30",0.0,26.4,78.4,1006.2,217.6,0.7,1.8,216.9,0.12,22.4,24.7,"11:20:08",1
"21/09/12","11:40",0.0,26.1,77.5,1006.2,184.3,1.1,2.0,206.4,0.13,21.9,24.6,"11:33:52",1
"21/09/12","11:50",0.0,26.4,78.1,1006.0,143.6,0.7,2.5,79.4,0.12,22.3,24.7,"11:43:44",1
"21/09/12","12:00",0.0,26.3,78.2,1005.7,160.0,0.5,1.3,151.1,0.09,22.2,25.0,"11:54:48",1
"21/09/12","12:10",0.0,26.2,78.3,1006.0,212.5,0.3,0.8,255.5,0.09,22.2,24.7,"12:04:00",1
"21/09/12","12:20",0.0,26.3,78.4,1006.4,228.0,0.6,1.8,240.4,0.10,22.3,24.5,"12:16:00",1
"21/09/12","12:30",0.0,26.1,78.6,1006.2,153.3,0.8,1.7,125.9,0.11,22.1,24.9,"12:26:24",1
"21/09/12","12:40",0.0,26.5,78.7,1005.7,237.9,0.3,1.4,132.5,0.13,22.5,24.7,"12:39:36",1
"21/09/12","12:50",0.0,26.5,78.0,1005.5,290.2,0.7,1.6,243.0,0.13,22.4,24.6,"12:41:12",1
"21/09/12","13:00",0.0,26.5,77.2,1005.2,49.4,0.5,1.4,353.8,0.12,22.2,25.0,"12:54:48",1
"21/09/12","13:10",0.0,26.8,77.1,1005.2,278.6,0.3,0.9,241.6,0.13,22.5,24.9,"13:01:28",1
"21/09/12","13:20",0.0,26.8,76.7,1005.5,350.9,0.7,1.9,332.4,0.15,22.4,24.6,"13:13:04",1
"21/09/12","13:30",0.0,27.2,76.0,1006.0,211.6,0.6,2.0,230.8,0.19,22.6,24.5,"13:29:52",1
"21/09/12","13:40",0.0,26.8,76.1,1006.0,199.6,1.5,3.4,210.0,0.19,22.3,24.7,"13:36:56",1
"21/09/12","13:50",0.0,27.1,77.2,1006.0,192.7,1.5,2.9,215.6,0.24,22.8,24.8,"13:43:44",1
"21/09/12","14:00",0.0,27.0,77.3,1006.2,191.6,1.7,3.5,234.7,0.24,22.7,24.9,"13:54:40",1
"21/09/12","14:10",0.0,27.3,77.2,1006.0,185.8,1.5,3.1,196.9,0.23,23.0,25.1,"14:02:56",1
"21/09/12","14:20",0.0,27.0,77.2,1006.2,189.5,1.5,2.9,195.3,0.18,22.7,25.1,"14:13:52",1
"21/09/12","14:30",0.0,26.7,77.6,1005.7,167.2,1.2,3.5,136.7,0.14,22.5,24.9,"14:23:12",1
"21/09/12","14:40",0.0,26.7,77.8,1005.5,196.0,1.5,3.4,216.1,0.16,22.5,25.0,"14:32:40",1
"21/09/12","14:50",0.0,26.7,77.5,1005.7,211.2,1.3,2.9,231.7,0.15,22.5,25.0,"14:43:44",1
"21/09/12","15:00",0.0,26.6,77.0,1005.7,164.6,1.1,2.5,185.8,0.14,22.3,24.9,"14:59:20",1
"21/09/12","15:10",0.0,26.4,77.0,1005.5,213.1,1.2,3.3,235.7,0.10,22.1,25.0,"15:03:44",1
"21/09/12","15:20",0.0,26.4,77.1,1005.0,209.5,1.0,1.9,236.3,0.08,22.1,25.2,"15:11:12",1
"21/09/12","15:30",0.0,26.2,76.7,1005.2,181.8,0.7,1.9,198.7,0.07,21.8,25.0,"15:25:28",1
"21/09/12","15:40",0.0,26.3,76.8,1005.2,209.0,0.8,2.6,192.4,0.07,21.9,25.2,"15:36:08",1
"21/09/12","15:50",0.0,26.3,77.2,1006.0,229.3,0.8,3.3,214.0,0.06,22.0,25.2,"15:41:52",1
"21/09/12","16:00",0.0,26.1,77.5,1005.2,153.3,0.7,1.4,175.6,0.05,21.9,25.0,"15:58:40",1
"21/09/12","16:10",0.0,25.9,78.0,1005.7,186.4,0.8,1.8,190.1,0.04,21.8,25.2,"16:01:52",1
"21/09/12","16:20",0.0,26.0,78.2,1006.0,275.4,0.8,1.6,239.4,0.05,21.9,25.1,"16:14:56",1
"21/09/12","16:30",0.0,26.2,78.4,1005.7,311.6,0.7,1.3,341.4,0.06,22.2,25.2,"16:20:08",1
"21/09/12","16:40",0.0,26.4,78.6,1006.4,343.7,0.7,1.4,333.6,0.06,22.4,25.2,"16:36:08",1
"21/09/12","16:50",0.0,26.4,78.8,1006.4,331.0,0.6,1.3,359.9,0.06,22.5,25.2,"16:42:32",1
"21/09/12","17:00",0.0,26.4,79.0,1006.4,325.8,0.7,1.4,338.6,0.05,22.5,25.2,"16:57:52",1
"21/09/12","17:10",0.0,26.3,79.3,1006.2,338.8,0.8,1.6,339.4,0.04,22.5,25.2,"17:05:20",1
"21/09/12","17:20",0.0,26.1,79.9,1006.4,327.6,0.8,1.4,338.8,0.02,22.4,25.2,"17:16:16",1
"21/09/12","17:30",0.0,26.0,80.8,1006.4,335.7,0.7,1.4,346.9,0.01,22.5,25.0,"17:29:04",1
"21/09/12","17:40",0.0,25.7,82.1,1006.7,336.9,0.8,1.1,343.6,0.01,22.5,25.0,"17:32:00",1
"21/09/12","17:50",0.0,25.3,83.2,1006.9,328.0,0.8,1.7,332.6,0.00,22.3,25.3,"17:45:28",1
"21/09/12","18:00",0.0,24.9,83.9,1006.9,325.1,0.7,1.3,327.2,0.00,22.0,25.1,"17:51:44",1
"21/09/12","18:10",0.0,24.9,84.7,1007.1,315.2,0.6,1.3,335.4,0.00,22.2,25.1,"18:07:52",1
"21/09/12","18:20",0.0,24.7,85.4,1007.4,317.1,0.7,1.4,341.0,0.00,22.1,25.3,"18:15:12",1
"21/09/12","18:30",0.0,24.4,86.0,1007.4,288.9,0.3,1.3,345.8,0.00,21.9,25.2,"18:20:16",1
"21/09/12","18:40",0.0,24.1,86.6,1007.4,299.5,0.6,1.3,340.9,0.00,21.8,25.1,"18:33:44",1
"21/09/12","18:50",0.0,24.0,87.2,1008.1,317.7,1.0,2.0,341.4,0.00,21.8,25.1,"18:46:16",1
"21/09/12","19:00",0.0,23.9,87.7,1008.3,296.1,0.7,1.4,326.6,0.00,21.8,25.2,"18:56:00",1
"21/09/12","19:10",0.0,23.7,88.0,1008.3,320.2,0.7,1.2,10.7,0.00,21.6,25.1,"19:08:00",1
"21/09/12","19:20",0.0,23.5,88.3,1007.8,302.0,0.8,1.1,305.2,0.00,21.5,25.1,"19:13:52",1
"21/09/12","19:30",0.0,23.3,88.7,1008.6,285.6,0.6,1.1,322.5,0.00,21.4,25.1,"19:27:28",1
"21/09/12","19:40",0.0,23.2,89.1,1008.6,278.1,0.7,1.1,265.1,0.00,21.3,24.9,"19:31:44",1
"21/09/12","19:50",0.0,23.3,89.3,1009.0,293.1,1.0,1.6,344.6,0.00,21.5,25.2,"19:49:04",1
"21/09/12","20:00",0.0,23.3,89.6,1009.0,316.8,1.1,1.8,321.9,0.00,21.5,25.0,"19:51:12",1
"21/09/12","20:10",0.0,23.1,89.8,1009.5,314.7,0.8,1.1,312.7,0.00,21.4,25.0,"20:01:12",1
"21/09/12","20:20",0.0,23.0,90.0,1009.5,298.3,0.6,1.0,267.3,0.00,21.3,24.9,"20:18:56",1
"21/09/12","20:30",0.0,23.0,90.2,1009.5,293.0,0.7,1.1,307.7,0.00,21.3,24.9,"20:28:24",1
"21/09/12","20:40",0.0,23.0,90.3,1009.5,306.7,0.8,1.3,301.0,0.00,21.4,25.2,"20:35:44",1
"21/09/12","20:50",0.0,22.8,90.5,1009.7,327.0,1.2,1.4,332.8,0.00,21.2,25.2,"20:41:04",1
"21/09/12","21:00",0.0,22.6,90.7,1009.7,310.5,0.8,1.2,321.4,0.00,21.0,24.9,"20:55:52",1
"21/09/12","21:10",0.0,22.4,90.9,1009.7,308.1,0.8,1.3,322.3,0.00,20.9,24.9,"21:02:08",1
"21/09/12","21:20",0.0,22.3,91.0,1009.7,294.5,0.7,1.1,308.8,0.00,20.8,24.8,"21:14:32",1
"21/09/12","21:30",0.0,22.4,91.3,1009.7,291.9,0.8,1.3,315.1,0.00,21.0,24.8,"21:29:52",1
"21/09/12","21:40",0.0,22.4,91.4,1009.7,309.9,1.1,1.8,327.9,0.00,21.0,24.8,"21:38:16",1
"21/09/12","21:50",0.0,22.5,91.6,1010.0,312.1,1.1,2.0,341.9,0.00,21.1,24.8,"21:49:52",1
"21/09/12","22:00",0.0,22.5,91.7,1010.0,314.8,1.1,1.4,322.5,0.00,21.1,24.7,"21:51:44",1
"21/09/12","22:10",0.0,22.4,91.8,1010.0,289.0,1.0,1.3,337.4,0.00,21.0,24.8,"22:07:04",1
"21/09/12","22:20",0.0,22.4,92.0,1010.4,294.7,1.0,1.4,338.8,0.00,21.1,25.0,"22:14:16",1
"21/09/12","22:30",0.0,22.3,92.2,1010.2,319.0,1.1,1.7,331.7,0.00,21.0,24.7,"22:25:20",1
"21/09/12","22:40",0.0,22.3,92.3,1010.0,326.2,1.2,2.0,335.6,0.00,21.0,24.9,"22:37:44",1
"21/09/12","22:50",0.0,22.3,92.4,1010.0,294.0,1.2,2.0,328.7,0.00,21.0,24.7,"22:42:08",1
"21/09/12","23:00",0.0,22.2,92.6,1010.0,315.8,1.5,2.7,338.6,0.00,21.0,24.8,"22:57:44",1
"21/09/12","23:10",0.0,22.3,92.6,1010.0,326.3,1.7,2.8,314.7,0.00,21.1,24.6,"23:06:24",1
"21/09/12","23:20",0.0,22.2,92.6,1010.2,326.2,1.6,3.1,342.7,0.00,21.0,24.7,"23:13:36",1
"21/09/12","23:30",0.0,22.2,92.6,1010.2,311.6,1.0,1.7,327.1,0.00,21.0,24.5,"23:20:16",1
"21/09/12","23:40",0.0,22.1,92.7,1010.2,313.5,0.6,1.6,348.1,0.00,20.9,24.7,"23:36:56",1
"21/09/12","23:50",0.0,22.0,92.7,1010.4,331.1,1.0,1.6,330.9,0.00,20.8,24.5,"23:42:40",1
"21/09/12","24:00",0.0,22.0,92.8,1010.4,336.1,1.2,2.9,334.2,0.00,20.8,24.5,"23:50:02",1
